Cordova, SC

9:36 AM EDT on August 30, 2016 (GMT -0400)
Orangeburg Municipal

Weather History for KOGB - December, 2014

Change the Weather History Date:

Thursday, December 18, 2014

  Actual Average Record
Temperature  
Mean Temperature 48 °F 47 °F  
Max Temperature 62 °F 58 °F 80 °F (2008)
Min Temperature 34 °F 36 °F 17 °F (1953)
Degree Days  
Heating Degree Days 17 18  
Month to date heating degree days 244 289  
Since 1 July heating degree days 716 658  
Cooling Degree Days 0 0  
Month to date cooling degree days 0 0  
Year to date cooling degree days 2250 2102  
Moisture  
Dew Point 36 °F    
Average Humidity 77    
Maximum Humidity 96    
Minimum Humidity 42    
Precipitation  
Precipitation 0.00 in 0.12 in 1.39 in (1959)
Month to date precipitation 0.12 2.03  
Year to date precipitation 43.93 45.44  
Sea Level Pressure  
Sea Level Pressure 30.11 in    
Wind  
Wind Speed 2 mph (ENE)    
Max Wind Speed 12 mph    
Max Gust Speed 15 mph    
Visibility 8 miles    
Events      
T = Trace of Precipitation, MM = Missing Value Source: NWS Daily Summary

Daily Weather History Graph

Daily Weather History Graph

Search for Another Location

Airport or City:

Trip Planner

Search our weather history database for the weather conditions in past years. The results will help you decide how hot, cold, wet, or windy it might be!

Date:

Astronomy

Dec. 18, 2014 Rise Set
Actual Time 7:21 AM EST 5:18 PM EST
Civil Twilight 6:54 AM EST 5:45 PM EST
Nautical Twilight 6:23 AM EST 6:16 PM EST
Astronomical Twilight 5:52 AM EST 6:47 PM EST
Moon 3:42 AM EST (12/18) 2:50 PM EST (12/18)
Length of Visible Light 10h 51m
Length of Day
9h 56m
Waning Crescent, 13% of the Moon is Illuminated
Dec 18
Waning Crescent
Dec 21
New
Dec 28
First Quarter
Jan 4
Full
Jan 13
Last Quarter

Hourly Weather History & Observations

Time (EST) Temp. Windchill Dew Point Humidity Pressure Visibility Wind Dir Wind Speed Gust Speed Precip Events Conditions
12:53 AM 39.0 °F - 36.0 °F 89% 30.09 in 10.0 mi Calm Calm - N/A   Clear
1:40 AM 36.0 °F - 35.1 °F 97% 30.09 in 1.5 mi Calm Calm - N/A   Clear
1:50 AM 37.4 °F - 35.6 °F 93% 30.09 in 4.0 mi Calm Calm - N/A   Clear
1:53 AM 36.0 °F - 34.0 °F 93% 30.09 in 8.0 mi Calm Calm - N/A   Clear
2:53 AM 36.0 °F - 34.0 °F 93% 30.09 in 5.0 mi Calm Calm - N/A   Clear
3:53 AM 34.0 °F - 32.0 °F 92% 30.09 in 6.0 mi Calm Calm - N/A   Clear
4:40 AM 35.1 °F - 33.1 °F 92% 30.09 in 1.5 mi Calm Calm - N/A   Clear
4:49 AM 33.8 °F - 32.0 °F 93% 30.09 in 2.5 mi Calm Calm - N/A   Clear
4:53 AM 35.1 °F - 32.0 °F 89% 30.10 in 6.0 mi Calm Calm - N/A   Clear
5:53 AM 35.1 °F - 33.1 °F 92% 30.13 in 9.0 mi Calm Calm - N/A   Clear
6:53 AM 36.0 °F 33.3 °F 34.0 °F 93% 30.14 in 10.0 mi North 3.5 mph - N/A   Clear
7:53 AM 36.0 °F - 34.0 °F 93% 30.14 in 9.0 mi Calm Calm - N/A   Clear
8:53 AM 42.1 °F - 37.9 °F 85% 30.17 in 10.0 mi Calm Calm - N/A   Clear
9:53 AM 48.9 °F - 39.0 °F 69% 30.18 in 10.0 mi NE 8.1 mph - N/A   Clear
10:53 AM 53.1 °F - 37.0 °F 55% 30.18 in 10.0 mi East 10.4 mph - N/A   Clear
11:53 AM 55.0 °F - 37.0 °F 51% 30.14 in 10.0 mi Variable 5.8 mph - N/A   Clear
12:53 PM 59.0 °F - 37.0 °F 44% 30.11 in 10.0 mi NNE 4.6 mph - N/A   Clear
1:53 PM 60.1 °F - 37.9 °F 44% 30.08 in 10.0 mi East 5.8 mph - N/A   Clear
2:53 PM 60.1 °F - 37.9 °F 44% 30.07 in 10.0 mi Calm Calm - N/A   Clear
3:53 PM 61.0 °F - 37.9 °F 42% 30.07 in 10.0 mi Calm Calm - N/A   Clear
4:53 PM 57.9 °F - 39.0 °F 49% 30.08 in 10.0 mi SE 3.5 mph - N/A   Clear
5:53 PM 50.0 °F - 41.0 °F 71% 30.08 in 10.0 mi Calm Calm - N/A   Clear
6:53 PM 48.9 °F - 41.0 °F 74% 30.09 in 10.0 mi Calm Calm - N/A   Clear
7:53 PM 46.9 °F - 39.0 °F 74% 30.10 in 9.0 mi Calm Calm - N/A   Clear
8:53 PM 45.0 °F - 39.0 °F 80% 30.10 in 10.0 mi Calm Calm - N/A   Clear
9:53 PM 43.0 °F - 39.0 °F 86% 30.12 in 10.0 mi Calm Calm - N/A   Clear
10:53 PM 43.0 °F - 39.0 °F 86% 30.12 in 9.0 mi Calm Calm - N/A   Clear
11:53 PM 41.0 °F - 37.9 °F 89% 30.12 in 9.0 mi Calm Calm - N/A   Clear